| time (UTC) | temp F | wind direction | speed MPH | gust MPH | rain 1hr in | rain 24hr in | rain mn in | humidity % | barometer mb |
| 20260510014945 | 64 | 193 | 0.0 | 0.0 | 0.00 | 0.00 | 0.00 | 81 | 1011.0 |
| 20260510014439 | 64 | 192 | 0.0 | 0.0 | 0.00 | 0.00 | 0.00 | 81 | 1011.0 |
| 20260510013934 | 64 | 192 | 0.0 | 0.0 | 0.00 | 0.00 | 0.00 | 81 | 1011.0 |
| 20260510013428 | 64 | 192 | 0.0 | 0.0 | 0.00 | 0.00 | 0.00 | 80 | 1011.0 |
| 20260510012922 | 64 | 193 | 0.0 | 0.0 | 0.00 | 0.00 | 0.00 | 80 | 1011.1 |
| 20260510012416 | 65 | 192 | 0.0 | 0.0 | 0.00 | 0.00 | 0.00 | 80 | 1011.1 |
| 20260510012406 | 65 | 192 | 0.0 | 0.0 | 0.00 | 0.00 | 0.00 | 79 | 1011.0 |
| 20260510011404 | 65 | 193 | 0.0 | 0.0 | 0.00 | 0.00 | 0.00 | 78 | 1011.0 |
| 20260510010857 | 65 | 192 | 0.0 | 0.0 | 0.00 | 0.00 | 0.00 | 77 | 1011.0 |
| 20260510010352 | 66 | 192 | 0.0 | 0.0 | 0.00 | 0.00 | 0.00 | 77 | 1010.9 |
| 20260510005847 | 66 | 193 | 0.0 | 2.0 | 0.00 | 0.00 | 0.00 | 76 | 1010.7 |
| 20260510005339 | 66 | 193 | 0.0 | 2.0 | 0.00 | 0.00 | 0.00 | 76 | 1010.6 |
| 20260510004835 | 67 | 193 | 0.0 | 2.0 | 0.00 | 0.00 | 0.00 | 75 | 1010.5 |
| 20260510004334 | 67 | 193 | 0.0 | 2.0 | 0.00 | 0.00 | 0.00 | 75 | 1010.6 |
| 20260510003832 | 67 | 193 | 0.0 | 1.0 | 0.00 | 0.00 | 0.00 | 74 | 1010.5 |
| 20260510003332 | 68 | 193 | 0.0 | 0.0 | 0.00 | 0.00 | 0.00 | 73 | 1010.4 |
| 20260510002834 | 68 | 193 | 0.0 | 1.0 | 0.00 | 0.00 | 0.00 | 73 | 1010.4 |
| 20260510002333 | 69 | 193 | 0.0 | 2.0 | 0.00 | 0.00 | 0.00 | 72 | 1010.4 |
| 20260510001832 | 69 | 193 | 0.0 | 2.0 | 0.00 | 0.00 | 0.00 | 71 | 1010.2 |
| 20260510001332 | 69 | 192 | 0.0 | 1.0 | 0.00 | 0.00 | 0.00 | 71 | 1010.0 |
| 20260510000833 | 70 | 192 | 0.0 | 1.0 | 0.00 | 0.00 | 0.00 | 70 | 1009.9 |
| 20260510000330 | 70 | 192 | 0.0 | 1.0 | 0.00 | 0.00 | 0.00 | 68 | 1010.1 |
| 20260509235830 | 71 | 192 | 0.0 | 1.0 | 0.00 | 0.00 | 0.00 | 68 | 1010.1 |
| 20260509235559 | 71 | 192 | 0.0 | 1.0 | 0.00 | 0.00 | 0.00 | 67 | 1010.1 |
| 20260509234831 | 72 | 192 | 0.0 | 1.0 | 0.00 | 0.00 | 0.00 | 66 | 1010.0 |
| 20260509234330 | 73 | 193 | 0.0 | 3.0 | 0.00 | 0.00 | 0.00 | 66 | 1010.0 |
| 20260509233828 | 73 | 192 | 1.0 | 3.0 | 0.00 | 0.00 | 0.00 | 64 | 1009.9 |
| 20260509233327 | 74 | 193 | 1.0 | 3.0 | 0.00 | 0.00 | 0.00 | 63 | 1010.0 |
| 20260509232828 | 75 | 235 | 1.0 | 4.0 | 0.00 | 0.00 | 0.00 | 62 | 1010.0 |
| 20260509232557 | 75 | 175 | 2.0 | 5.0 | 0.00 | 0.00 | 0.00 | 62 | 1010.0 |
| 20260509232054 | 76 | 217 | 1.0 | 5.0 | 0.00 | 0.00 | 0.00 | 61 | 1010.0 |
| 20260509231323 | 76 | 176 | 1.0 | 5.0 | 0.00 | 0.00 | 0.00 | 62 | 1010.1 |
| 20260509230824 | 76 | 193 | 2.0 | 5.0 | 0.00 | 0.00 | 0.00 | 60 | 1010.1 |
| 20260509230802 | 76 | 172 | 2.0 | 5.0 | 0.00 | 0.00 | 0.00 | 60 | 1010.0 |
| 20260509225824 | 76 | 280 | 2.0 | 11.0 | 0.00 | 0.00 | 0.00 | 59 | 1009.8 |
| 20260509225323 | 76 | 203 | 3.0 | 11.0 | 0.00 | 0.00 | 0.00 | 59 | 1009.9 |
| 20260509224824 | 76 | 232 | 3.0 | 10.0 | 0.00 | 0.00 | 0.00 | 58 | 1009.8 |
| 20260509224324 | 76 | 186 | 3.0 | 10.0 | 0.00 | 0.00 | 0.00 | 57 | 1009.9 |
| 20260509223824 | 77 | 182 | 2.0 | 7.0 | 0.00 | 0.00 | 0.00 | 57 | 1009.9 |
| 20260509223324 | 77 | 334 | 3.0 | 7.0 | 0.00 | 0.00 | 0.00 | 58 | 1010.0 |
| 20260509223041 | 77 | 204 | 3.0 | 6.0 | 0.00 | 0.00 | 0.00 | 60 | 1010.0 |
| 20260509222542 | 77 | 236 | 3.0 | 9.0 | 0.00 | 0.00 | 0.00 | 56 | 1009.7 |
| 20260509221816 | 77 | 271 | 3.0 | 9.0 | 0.00 | 0.00 | 0.00 | 56 | 1009.5 |
| 20260509221315 | 77 | 197 | 3.0 | 9.0 | 0.00 | 0.00 | 0.00 | 57 | 1009.5 |
| 20260509220815 | 77 | 245 | 3.0 | 9.0 | 0.00 | 0.00 | 0.00 | 57 | 1009.6 |
| 20260509220328 | 77 | 221 | 2.0 | 10.0 | 0.00 | 0.00 | 0.00 | 57 | 1009.7 |
| 20260509215816 | 77 | 201 | 3.0 | 10.0 | 0.00 | 0.00 | 0.00 | 57 | 1009.7 |
| 20260509215316 | 77 | 261 | 4.0 | 10.0 | 0.00 | 0.00 | 0.00 | 55 | 1009.7 |
| 20260509214817 | 77 | 207 | 4.0 | 10.0 | 0.00 | 0.00 | 0.00 | 54 | 1009.7 |
| 20260509214315 | 77 | 279 | 4.0 | 10.0 | 0.00 | 0.00 | 0.00 | 55 | 1009.7 |
| 20260509213816 | 77 | 274 | 4.0 | 10.0 | 0.00 | 0.00 | 0.00 | 55 | 1009.5 |
| 20260509213315 | 76 | 212 | 3.0 | 8.0 | 0.00 | 0.00 | 0.00 | 56 | 1009.5 |
| 20260509213035 | 76 | 329 | 3.0 | 10.0 | 0.00 | 0.00 | 0.00 | 56 | 1009.5 |
| 20260509212536 | 76 | 220 | 3.0 | 10.0 | 0.00 | 0.00 | 0.00 | 55 | 1009.5 |
| 20260509212038 | 76 | 195 | 3.0 | 10.0 | 0.00 | 0.00 | 0.00 | 55 | 1009.5 |
| 20260509211315 | 77 | 179 | 3.0 | 9.0 | 0.00 | 0.00 | 0.00 | 53 | 1009.5 |
| 20260509210828 | 77 | 207 | 3.0 | 8.0 | 0.00 | 0.00 | 0.00 | 53 | 1009.5 |
| 20260509210314 | 78 | 176 | 3.0 | 8.0 | 0.00 | 0.00 | 0.00 | 52 | 1009.5 |
| 20260509205814 | 78 | 194 | 3.0 | 8.0 | 0.00 | 0.00 | 0.00 | 52 | 1009.5 |
| 20260509205314 | 78 | 207 | 4.0 | 12.0 | 0.00 | 0.00 | 0.00 | 51 | 1009.6 |
| 20260509204813 | 79 | 234 | 4.0 | 12.0 | 0.00 | 0.00 | 0.00 | 51 | 1009.6 |
| 20260509204308 | 79 | 310 | 4.0 | 11.0 | 0.00 | 0.00 | 0.00 | 53 | 1009.5 |
| 20260509203802 | 79 | 79 | 4.0 | 11.0 | 0.00 | 0.00 | 0.00 | 53 | 1009.5 |
| 20260509203256 | 79 | 248 | 4.0 | 10.0 | 0.00 | 0.00 | 0.00 | 52 | 1009.5 |
| 20260509203009 | 78 | 188 | 5.0 | 11.0 | 0.00 | 0.00 | 0.00 | 55 | 1009.4 |
| 20260509202244 | 78 | 261 | 5.0 | 11.0 | 0.00 | 0.00 | 0.00 | 50 | 1009.4 |
| 20260509201738 | 78 | 230 | 5.0 | 14.0 | 0.00 | 0.00 | 0.00 | 53 | 1009.4 |
| 20260509201232 | 77 | 273 | 4.0 | 14.0 | 0.00 | 0.00 | 0.00 | 53 | 1009.5 |
| 20260509200727 | 77 | 194 | 4.0 | 13.0 | 0.00 | 0.00 | 0.00 | 53 | 1009.5 |
| 20260509200221 | 78 | 244 | 4.0 | 13.0 | 0.00 | 0.00 | 0.00 | 52 | 1009.5 |
| 20260509195912 | 78 | 203 | 4.0 | 10.0 | 0.00 | 0.00 | 0.00 | 54 | 1009.5 |
| 20260509195757 | 78 | 210 | 5.0 | 10.0 | 0.00 | 0.00 | 0.00 | 53 | 1009.5 |
| 20260509194703 | 77 | 179 | 4.0 | 10.0 | 0.00 | 0.00 | 0.00 | 54 | 1009.7 |
| 20260509194156 | 77 | 341 | 4.0 | 10.0 | 0.00 | 0.00 | 0.00 | 53 | 1009.6 |
| 20260509193651 | 77 | 228 | 4.0 | 10.0 | 0.00 | 0.00 | 0.00 | 51 | 1009.7 |
| 20260509193144 | 78 | 53 | 4.0 | 10.0 | 0.00 | 0.00 | 0.00 | 51 | 1009.9 |
| 20260509192638 | 78 | 167 | 4.0 | 10.0 | 0.00 | 0.00 | 0.00 | 54 | 1010.0 |
| 20260509192353 | 77 | 211 | 4.0 | 10.0 | 0.00 | 0.00 | 0.00 | 53 | 1010.0 |
| 20260509191627 | 77 | 232 | 4.0 | 14.0 | 0.00 | 0.00 | 0.00 | 55 | 1010.1 |
| 20260509191120 | 77 | 177 | 5.0 | 15.0 | 0.00 | 0.00 | 0.00 | 53 | 1010.2 |
| 20260509190614 | 77 | 257 | 4.0 | 13.0 | 0.00 | 0.00 | 0.00 | 54 | 1010.2 |
| 20260509190109 | 77 | 283 | 5.0 | 15.0 | 0.00 | 0.00 | 0.00 | 52 | 1010.3 |
| 20260509190059 | 77 | 278 | 5.0 | 15.0 | 0.00 | 0.00 | 0.00 | 53 | 1010.4 |
| 20260509185056 | 78 | 269 | 4.0 | 13.0 | 0.00 | 0.00 | 0.00 | 52 | 1010.3 |
| 20260509184550 | 77 | 278 | 4.0 | 11.0 | 0.00 | 0.00 | 0.00 | 56 | 1010.4 |
| 20260509184302 | 77 | 285 | 5.0 | 15.0 | 0.00 | 0.00 | 0.00 | 52 | 1010.4 |
| 20260509183538 | 78 | 207 | 6.0 | 16.0 | 0.00 | 0.00 | 0.00 | 53 | 1010.6 |
| 20260509183032 | 77 | 173 | 6.0 | 16.0 | 0.00 | 0.00 | 0.00 | 53 | 1010.6 |
| 20260509182526 | 77 | 172 | 5.0 | 11.0 | 0.00 | 0.00 | 0.00 | 52 | 1010.7 |
| 20260509182239 | 77 | 269 | 5.0 | 11.0 | 0.00 | 0.00 | 0.00 | 55 | 1010.7 |
| 20260509181528 | 77 | 286 | 4.0 | 9.0 | 0.00 | 0.00 | 0.00 | 56 | 1010.8 |
| 20260509181010 | 77 | 240 | 4.0 | 8.0 | 0.00 | 0.00 | 0.00 | 53 | 1010.7 |
| 20260509180501 | 76 | 248 | 5.0 | 11.0 | 0.00 | 0.00 | 0.00 | 59 | 1010.7 |
| 20260509175956 | 76 | 282 | 4.0 | 11.0 | 0.00 | 0.00 | 0.00 | 53 | 1010.7 |
| 20260509175451 | 76 | 205 | 5.0 | 17.0 | 0.00 | 0.00 | 0.00 | 55 | 1010.7 |
| 20260509174944 | 76 | 270 | 6.0 | 17.0 | 0.00 | 0.00 | 0.00 | 55 | 1010.9 |
| 20260509174438 | 76 | 178 | 4.0 | 14.0 | 0.00 | 0.00 | 0.00 | 53 | 1010.8 |
| 20260509173934 | 76 | 93 | 4.0 | 13.0 | 0.00 | 0.00 | 0.00 | 53 | 1010.9 |
| 20260509173909 | 77 | 140 | 4.0 | 13.0 | 0.00 | 0.00 | 0.00 | 52 | 1011.1 |
| 20260509172921 | 76 | 232 | 3.0 | 13.0 | 0.00 | 0.00 | 0.00 | 57 | 1011.2 |
| 20260509172414 | 76 | 163 | 3.0 | 13.0 | 0.00 | 0.00 | 0.00 | 56 | 1011.2 |
| 20260509171908 | 75 | 211 | 3.0 | 11.0 | 0.00 | 0.00 | 0.00 | 56 | 1011.5 |
| 20260509171402 | 76 | 191 | 3.0 | 11.0 | 0.00 | 0.00 | 0.00 | 53 | 1011.5 |
| 20260509170856 | 76 | 197 | 4.0 | 14.0 | 0.00 | 0.00 | 0.00 | 54 | 1011.8 |
| 20260509170404 | 75 | 235 | 4.0 | 14.0 | 0.00 | 0.00 | 0.00 | 55 | 1011.8 |
| 20260509170107 | 76 | 332 | 4.0 | 11.0 | 0.00 | 0.00 | 0.00 | 54 | 1011.5 |
| 20260509165559 | 75 | 247 | 4.0 | 10.0 | 0.00 | 0.00 | 0.00 | 54 | 1011.6 |
| 20260509165058 | 75 | 190 | 4.0 | 10.0 | 0.00 | 0.00 | 0.00 | 51 | 1011.5 |
| 20260509164327 | 75 | 257 | 4.0 | 10.0 | 0.00 | 0.00 | 0.00 | 55 | 1011.4 |
| 20260509163822 | 75 | 278 | 5.0 | 12.0 | 0.00 | 0.00 | 0.00 | 59 | 1011.3 |
| 20260509163314 | 74 | 255 | 3.0 | 12.0 | 0.00 | 0.00 | 0.00 | 58 | 1011.4 |
| 20260509163033 | 74 | 188 | 3.0 | 10.0 | 0.00 | 0.00 | 0.00 | 57 | 1011.6 |
| 20260509162306 | 74 | 159 | 3.0 | 10.0 | 0.00 | 0.00 | 0.00 | 58 | 1011.7 |
| 20260509161757 | 73 | 7 | 3.0 | 11.0 | 0.00 | 0.00 | 0.00 | 58 | 1011.8 |
| 20260509161250 | 73 | 68 | 4.0 | 13.0 | 0.00 | 0.00 | 0.00 | 57 | 1011.8 |
| 20260509160745 | 73 | 280 | 4.0 | 13.0 | 0.00 | 0.00 | 0.00 | 60 | 1011.9 |
| 20260509160238 | 73 | 290 | 5.0 | 14.0 | 0.00 | 0.00 | 0.00 | 59 | 1011.9 |
| 20260509155956 | 73 | 207 | 5.0 | 14.0 | 0.00 | 0.00 | 0.00 | 57 | 1012.0 |
| 20260509155226 | 73 | 174 | 4.0 | 12.0 | 0.00 | 0.00 | 0.00 | 58 | 1012.1 |
| 20260509154721 | 72 | 243 | 4.0 | 13.0 | 0.00 | 0.00 | 0.00 | 59 | 1012.2 |
| 20260509154215 | 72 | 224 | 4.0 | 13.0 | 0.00 | 0.00 | 0.00 | 60 | 1012.4 |
| 20260509153707 | 72 | 143 | 3.0 | 8.0 | 0.00 | 0.00 | 0.00 | 62 | 1012.3 |
| 20260509153202 | 72 | 192 | 4.0 | 10.0 | 0.00 | 0.00 | 0.00 | 63 | 1012.2 |
| 20260509152656 | 72 | 204 | 4.0 | 10.0 | 0.00 | 0.00 | 0.00 | 63 | 1012.3 |
| 20260509152150 | 72 | 139 | 3.0 | 8.0 | 0.00 | 0.00 | 0.00 | 64 | 1012.4 |
| 20260509151645 | 72 | 157 | 3.0 | 9.0 | 0.00 | 0.00 | 0.00 | 65 | 1012.6 |
| 20260509151140 | 72 | 193 | 3.0 | 9.0 | 0.00 | 0.00 | 0.00 | 64 | 1012.9 |
| 20260509150632 | 72 | 176 | 3.0 | 10.0 | 0.00 | 0.00 | 0.00 | 63 | 1013.0 |
| 20260509150126 | 72 | 170 | 4.0 | 10.0 | 0.00 | 0.00 | 0.00 | 63 | 1013.1 |
| 20260509145621 | 72 | 178 | 4.0 | 10.0 | 0.00 | 0.00 | 0.00 | 64 | 1013.3 |
| 20260509145114 | 72 | 228 | 3.0 | 10.0 | 0.00 | 0.00 | 0.00 | 65 | 1013.4 |
| 20260509144608 | 72 | 219 | 3.0 | 9.0 | 0.00 | 0.00 | 0.00 | 64 | 1013.4 |
| 20260509144102 | 72 | 174 | 3.0 | 8.0 | 0.00 | 0.00 | 0.00 | 66 | 1013.4 |
| 20260509143820 | 72 | 199 | 3.0 | 6.0 | 0.00 | 0.00 | 0.00 | 65 | 1013.5 |
| 20260509143311 | 72 | 220 | 2.0 | 6.0 | 0.00 | 0.00 | 0.00 | 63 | 1013.5 |
| 20260509142545 | 71 | 193 | 2.0 | 6.0 | 0.00 | 0.00 | 0.00 | 65 | 1013.7 |
| 20260509142041 | 71 | 244 | 2.0 | 6.0 | 0.00 | 0.00 | 0.00 | 66 | 1013.7 |
| 20260509141804 | 71 | 207 | 3.0 | 7.0 | 0.00 | 0.00 | 0.00 | 66 | 1013.5 |
| 20260509141039 | 70 | 238 | 2.0 | 7.0 | 0.00 | 0.00 | 0.00 | 70 | 1013.4 |
| 20260509140800 | 69 | 297 | 1.0 | 5.0 | 0.00 | 0.00 | 0.00 | 69 | 1013.6 |
| 20260509140035 | 69 | 274 | 2.0 | 6.0 | 0.00 | 0.00 | 0.00 | 71 | 1013.5 |
| 20260509135534 | 68 | 182 | 2.0 | 6.0 | 0.00 | 0.00 | 0.00 | 70 | 1013.5 |
| 20260509135034 | 68 | 180 | 2.0 | 8.0 | 0.00 | 0.00 | 0.00 | 70 | 1013.6 |
| 20260509134536 | 67 | 218 | 3.0 | 8.0 | 0.00 | 0.00 | 0.00 | 71 | 1013.7 |
| 20260509134033 | 68 | 202 | 3.0 | 8.0 | 0.00 | 0.00 | 0.00 | 71 | 1013.6 |
| 20260509133757 | 67 | 170 | 2.0 | 6.0 | 0.00 | 0.00 | 0.00 | 74 | 1013.6 |
| 20260509133033 | 67 | 259 | 3.0 | 6.0 | 0.00 | 0.00 | 0.00 | 74 | 1013.5 |
| 20260509132544 | 66 | 242 | 2.0 | 6.0 | 0.00 | 0.00 | 0.00 | 75 | 1013.6 |
| 20260509132031 | 66 | 190 | 1.0 | 6.0 | 0.00 | 0.00 | 0.00 | 78 | 1013.6 |
| 20260509131807 | 65 | 30 | 1.0 | 2.0 | 0.00 | 0.00 | 0.00 | 77 | 1013.7 |
| 20260509131030 | 65 | 307 | 1.0 | 4.0 | 0.00 | 0.00 | 0.00 | 77 | 1013.7 |
| 20260509130800 | 65 | 140 | 1.0 | 4.0 | 0.00 | 0.00 | 0.00 | 78 | 1013.7 |
| 20260509130027 | 65 | 173 | 1.0 | 6.0 | 0.00 | 0.00 | 0.00 | 78 | 1013.6 |
| 20260509125526 | 65 | 80 | 1.0 | 6.0 | 0.00 | 0.00 | 0.00 | 79 | 1013.7 |
| 20260509125027 | 65 | 214 | 1.0 | 4.0 | 0.00 | 0.00 | 0.00 | 80 | 1013.7 |
| 20260509124527 | 64 | 198 | 2.0 | 4.0 | 0.00 | 0.00 | 0.00 | 81 | 1013.9 |
| 20260509124027 | 64 | 200 | 2.0 | 4.0 | 0.00 | 0.00 | 0.00 | 81 | 1014.0 |
| 20260509123527 | 63 | 145 | 1.0 | 4.0 | 0.00 | 0.00 | 0.00 | 82 | 1013.9 |
| 20260509123509 | 63 | 148 | 1.0 | 4.0 | 0.00 | 0.00 | 0.00 | 83 | 1014.0 |
| 20260509122527 | 62 | 205 | 1.0 | 4.0 | 0.00 | 0.00 | 0.00 | 84 | 1014.0 |
| 20260509122027 | 61 | 195 | 1.0 | 3.0 | 0.00 | 0.00 | 0.00 | 85 | 1014.0 |
| 20260509121540 | 60 | 163 | 1.0 | 3.0 | 0.00 | 0.00 | 0.00 | 86 | 1013.7 |
| 20260509121028 | 60 | 182 | 1.0 | 3.0 | 0.00 | 0.00 | 0.00 | 87 | 1013.8 |
| 20260509120529 | 59 | 211 | 1.0 | 3.0 | 0.00 | 0.00 | 0.00 | 87 | 1013.9 |
| 20260509120248 | 59 | 120 | 1.0 | 3.0 | 0.00 | 0.00 | 0.00 | 88 | 1013.9 |
| 20260509115540 | 58 | 78 | 1.0 | 2.0 | 0.00 | 0.00 | 0.00 | 89 | 1013.8 |
| 20260509115501 | 57 | 76 | 1.0 | 3.0 | 0.00 | 0.00 | 0.00 | 89 | 1014.0 |
| 20260509114524 | 57 | 57 | 1.0 | 3.0 | 0.00 | 0.00 | 0.00 | 89 | 1014.0 |
| 20260509114039 | 56 | 35 | 1.0 | 3.0 | 0.00 | 0.00 | 0.00 | 90 | 1014.0 |
| 20260509113751 | 56 | 35 | 1.0 | 3.0 | 0.00 | 0.00 | 0.00 | 90 | 1014.0 |
| 20260509113017 | 55 | 35 | 1.0 | 2.0 | 0.00 | 0.00 | 0.00 | 90 | 1014.0 |
| 20260509112518 | 55 | 34 | 0.0 | 2.0 | 0.00 | 0.00 | 0.00 | 90 | 1014.0 |
| 20260509112006 | 54 | 34 | 0.0 | 3.0 | 0.00 | 0.00 | 0.00 | 90 | 1013.8 |
| 20260509111501 | 54 | 34 | 1.0 | 3.0 | 0.00 | 0.00 | 0.00 | 90 | 1013.9 |
| 20260509110953 | 53 | 163 | 1.0 | 2.0 | 0.00 | 0.00 | 0.00 | 90 | 1014.0 |
| 20260509110447 | 53 | 165 | 1.0 | 2.0 | 0.00 | 0.00 | 0.00 | 90 | 1014.0 |
| 20260509105943 | 53 | 165 | 1.0 | 2.0 | 0.00 | 0.00 | 0.00 | 90 | 1013.9 |
| 20260509105702 | 52 | 172 | 1.0 | 2.0 | 0.00 | 0.00 | 0.00 | 90 | 1014.1 |
| 20260509104931 | 52 | 172 | 0.0 | 2.0 | 0.00 | 0.00 | 0.00 | 90 | 1014.0 |
| 20260509104423 | 52 | 172 | 0.0 | 1.0 | 0.00 | 0.00 | 0.00 | 89 | 1014.0 |
| 20260509103918 | 51 | 172 | 0.0 | 1.0 | 0.00 | 0.00 | 0.00 | 89 | 1014.1 |
| 20260509103638 | 51 | 168 | 0.0 | 1.0 | 0.00 | 0.00 | 0.00 | 89 | 1014.1 |
| 20260509103133 | 51 | 172 | 0.0 | 1.0 | 0.00 | 0.00 | 0.00 | 89 | 1014.2 |
| 20260509102400 | 51 | 172 | 0.0 | 0.0 | 0.00 | 0.00 | 0.00 | 89 | 1014.2 |
| 20260509101853 | 51 | 172 | 0.0 | 0.0 | 0.00 | 0.00 | 0.00 | 89 | 1014.2 |
| 20260509101347 | 51 | 172 | 0.0 | 0.0 | 0.00 | 0.00 | 0.00 | 89 | 1014.2 |
| 20260509100842 | 51 | 172 | 0.0 | 1.0 | 0.00 | 0.00 | 0.00 | 89 | 1014.1 |
| 20260509100336 | 51 | 172 | 0.0 | 1.0 | 0.00 | 0.00 | 0.00 | 88 | 1014.1 |
| 20260509095830 | 52 | 172 | 0.0 | 2.0 | 0.00 | 0.00 | 0.00 | 89 | 1014.0 |
| 20260509095324 | 52 | 172 | 0.0 | 2.0 | 0.00 | 0.00 | 0.00 | 89 | 1014.0 |
| 20260509094818 | 52 | 172 | 0.0 | 2.0 | 0.00 | 0.00 | 0.00 | 88 | 1014.0 |
| 20260509094311 | 52 | 172 | 0.0 | 2.0 | 0.00 | 0.00 | 0.00 | 88 | 1014.0 |
| 20260509093806 | 52 | 171 | 0.0 | 1.0 | 0.00 | 0.00 | 0.00 | 88 | 1014.1 |
| 20260509093300 | 52 | 172 | 0.0 | 3.0 | 0.00 | 0.00 | 0.00 | 88 | 1014.2 |
| 20260509092753 | 52 | 172 | 0.0 | 3.0 | 0.00 | 0.00 | 0.00 | 88 | 1014.2 |
| 20260509092247 | 52 | 138 | 0.0 | 1.0 | 0.00 | 0.00 | 0.00 | 88 | 1014.3 |
| 20260509091742 | 53 | 138 | 0.0 | 1.0 | 0.00 | 0.00 | 0.00 | 88 | 1014.4 |
| 20260509091236 | 53 | 138 | 0.0 | 1.0 | 0.00 | 0.00 | 0.00 | 88 | 1014.4 |
| 20260509090953 | 53 | 138 | 0.0 | 4.0 | 0.00 | 0.00 | 0.00 | 88 | 1014.3 |
| 20260509090225 | 53 | 139 | 1.0 | 4.0 | 0.00 | 0.00 | 0.00 | 88 | 1014.4 |
| 20260509085718 | 53 | 219 | 0.0 | 2.0 | 0.00 | 0.00 | 0.00 | 88 | 1014.3 |
| 20260509085212 | 53 | 217 | 0.0 | 2.0 | 0.00 | 0.00 | 0.00 | 88 | 1014.3 |
| 20260509084706 | 53 | 217 | 1.0 | 3.0 | 0.00 | 0.00 | 0.00 | 88 | 1014.3 |
| 20260509084422 | 53 | 223 | 1.0 | 3.0 | 0.00 | 0.00 | 0.00 | 88 | 1014.3 |
| 20260509083706 | 53 | 193 | 1.0 | 3.0 | 0.00 | 0.00 | 0.00 | 87 | 1014.2 |
| 20260509083149 | 53 | 193 | 1.0 | 3.0 | 0.00 | 0.00 | 0.00 | 87 | 1014.2 |
| 20260509082654 | 53 | 203 | 0.0 | 3.0 | 0.00 | 0.00 | 0.00 | 87 | 1014.3 |
| 20260509082358 | 53 | 190 | 1.0 | 3.0 | 0.00 | 0.00 | 0.00 | 87 | 1014.2 |
| 20260509081631 | 53 | 136 | 1.0 | 2.0 | 0.00 | 0.00 | 0.00 | 87 | 1014.3 |
| 20260509081124 | 53 | 130 | 1.0 | 2.0 | 0.00 | 0.00 | 0.00 | 87 | 1014.2 |
| 20260509080617 | 53 | 130 | 1.0 | 2.0 | 0.00 | 0.00 | 0.00 | 86 | 1014.2 |
| 20260509080347 | 53 | 136 | 1.0 | 2.0 | 0.00 | 0.00 | 0.00 | 86 | 1014.4 |
| 20260509075830 | 53 | 130 | 0.0 | 2.0 | 0.00 | 0.00 | 0.00 | 86 | 1014.5 |
| 20260509075100 | 53 | 126 | 1.0 | 2.0 | 0.00 | 0.00 | 0.00 | 86 | 1014.6 |
| 20260509074553 | 53 | 126 | 1.0 | 2.0 | 0.00 | 0.00 | 0.00 | 86 | 1014.5 |
| 20260509074048 | 53 | 128 | 0.0 | 2.0 | 0.00 | 0.00 | 0.00 | 86 | 1014.5 |
| 20260509073541 | 54 | 133 | 0.0 | 2.0 | 0.00 | 0.00 | 0.00 | 86 | 1014.6 |
| 20260509073035 | 54 | 134 | 0.0 | 2.0 | 0.00 | 0.00 | 0.00 | 85 | 1014.7 |
| 20260509072529 | 54 | 216 | 0.0 | 1.0 | 0.00 | 0.00 | 0.00 | 85 | 1014.8 |
| 20260509072024 | 54 | 186 | 1.0 | 3.0 | 0.00 | 0.00 | 0.00 | 85 | 1014.8 |
| 20260509071519 | 54 | 188 | 0.0 | 3.0 | 0.00 | 0.00 | 0.00 | 85 | 1014.8 |
| 20260509071229 | 54 | 355 | 0.0 | 2.0 | 0.00 | 0.00 | 0.00 | 85 | 1014.8 |
| 20260509070740 | 54 | 355 | 1.0 | 2.0 | 0.00 | 0.00 | 0.00 | 85 | 1014.8 |
| 20260509065959 | 54 | 217 | 1.0 | 2.0 | 0.00 | 0.00 | 0.00 | 84 | 1014.8 |
| 20260509065455 | 54 | 217 | 1.0 | 2.0 | 0.00 | 0.00 | 0.00 | 84 | 1014.8 |
| 20260509064947 | 54 | 241 | 0.0 | 2.0 | 0.00 | 0.00 | 0.00 | 84 | 1014.8 |
| 20260509064441 | 54 | 113 | 0.0 | 2.0 | 0.00 | 0.00 | 0.00 | 84 | 1015.0 |
| 20260509063935 | 55 | 114 | 1.0 | 3.0 | 0.00 | 0.00 | 0.00 | 84 | 1014.9 |
| 20260509063429 | 55 | 114 | 1.0 | 3.0 | 0.00 | 0.00 | 0.00 | 84 | 1014.9 |
| 20260509062923 | 55 | 0 | 1.0 | 3.0 | 0.00 | 0.00 | 0.00 | 84 | 1015.0 |
| 20260509062419 | 55 | 217 | 1.0 | 3.0 | 0.00 | 0.00 | 0.00 | 83 | 1015.0 |
| 20260509062129 | 55 | 218 | 1.0 | 3.0 | 0.00 | 0.00 | 0.00 | 83 | 1015.0 |
| 20260509061406 | 55 | 161 | 1.0 | 3.0 | 0.00 | 0.00 | 0.00 | 83 | 1015.2 |
| 20260509060900 | 55 | 287 | 1.0 | 6.0 | 0.00 | 0.00 | 0.00 | 83 | 1015.2 |
| 20260509060354 | 55 | 209 | 1.0 | 6.0 | 0.00 | 0.00 | 0.00 | 83 | 1015.3 |
| 20260509060109 | 55 | 216 | 1.0 | 4.0 | 0.00 | 0.00 | 0.00 | 83 | 1015.3 |
| 20260509055342 | 55 | 199 | 0.0 | 4.0 | 0.00 | 0.00 | 0.00 | 83 | 1015.2 |
| 20260509054836 | 55 | 164 | 0.0 | 2.0 | 0.00 | 0.00 | 0.00 | 83 | 1015.4 |
| 20260509054329 | 55 | 107 | 0.0 | 2.0 | 0.00 | 0.00 | 0.00 | 83 | 1015.4 |
| 20260509053824 | 55 | 192 | 1.0 | 5.0 | 0.00 | 0.00 | 0.00 | 83 | 1015.5 |
| 20260509053318 | 55 | 155 | 1.0 | 5.0 | 0.00 | 0.00 | 0.00 | 82 | 1015.4 |
| 20260509052811 | 55 | 152 | 1.0 | 3.0 | 0.00 | 0.00 | 0.00 | 82 | 1015.4 |
| 20260509052307 | 55 | 150 | 1.0 | 3.0 | 0.00 | 0.00 | 0.00 | 82 | 1015.3 |
| 20260509051801 | 55 | 14 | 1.0 | 4.0 | 0.00 | 0.00 | 0.00 | 82 | 1015.4 |
| 20260509051534 | 56 | 184 | 1.0 | 4.0 | 0.00 | 0.00 | 0.00 | 82 | 1015.5 |
| 20260509050747 | 56 | 134 | 1.0 | 4.0 | 0.00 | 0.00 | 0.00 | 81 | 1015.4 |
| 20260509050241 | 56 | 260 | 1.0 | 4.0 | 0.00 | 0.00 | 0.00 | 81 | 1015.4 |
| 20260509045735 | 56 | 200 | 1.0 | 4.0 | 0.00 | 0.00 | 0.00 | 81 | 1015.3 |
| 20260509045236 | 56 | 149 | 1.0 | 4.0 | 0.00 | 0.00 | 0.00 | 81 | 1015.3 |
| 20260509044733 | 56 | 158 | 1.0 | 4.0 | 0.00 | 0.00 | 0.00 | 81 | 1015.3 |
| 20260509044233 | 56 | 169 | 1.0 | 4.0 | 0.00 | 0.00 | 0.00 | 81 | 1015.2 |
| 20260509043731 | 56 | 186 | 1.0 | 4.0 | 0.00 | 0.00 | 0.00 | 81 | 1015.2 |
| 20260509043232 | 56 | 221 | 1.0 | 4.0 | 0.00 | 0.00 | 0.00 | 81 | 1015.2 |
| 20260509042731 | 56 | 178 | 1.0 | 4.0 | 0.00 | 0.00 | 0.00 | 81 | 1015.0 |
| 20260509042230 | 56 | 305 | 1.0 | 5.0 | 0.00 | 0.00 | 0.00 | 81 | 1015.1 |
| 20260509041729 | 56 | 249 | 1.0 | 5.0 | 0.00 | 0.00 | 0.00 | 81 | 1015.2 |
| 20260509041230 | 56 | 303 | 1.0 | 4.0 | 0.00 | 0.00 | 0.00 | 81 | 1015.3 |
| 20260509040731 | 56 | 8 | 1.0 | 4.0 | 0.00 | 0.00 | 0.00 | 81 | 1015.3 |
| 20260509040231 | 56 | 51 | 1.0 | 4.0 | 0.00 | 0.00 | 0.00 | 80 | 1015.3 |
| 20260509035726 | 56 | 184 | 1.0 | 4.0 | 0.00 | 0.00 | 0.00 | 80 | 1015.5 |
| 20260509035217 | 56 | 138 | 1.0 | 4.0 | 0.00 | 0.00 | 0.00 | 80 | 1015.4 |
| 20260509034932 | 56 | 78 | 1.0 | 2.0 | 0.00 | 0.00 | 0.00 | 80 | 1015.5 |
| 20260509034424 | 56 | 119 | 1.0 | 3.0 | 0.00 | 0.00 | 0.00 | 80 | 1015.5 |
| 20260509033700 | 56 | 67 | 1.0 | 4.0 | 0.00 | 0.00 | 0.00 | 80 | 1015.6 |
| 20260509033416 | 57 | 65 | 1.0 | 5.0 | 0.00 | 0.00 | 0.00 | 79 | 1015.6 |
| 20260509032906 | 57 | 240 | 1.0 | 5.0 | 0.00 | 0.00 | 0.00 | 79 | 1015.6 |
| 20260509032141 | 57 | 180 | 1.0 | 5.0 | 0.00 | 0.00 | 0.00 | 78 | 1015.7 |
| 20260509031637 | 57 | 217 | 1.0 | 4.0 | 0.00 | 0.00 | 0.00 | 77 | 1016.1 |
| 20260509031352 | 57 | 163 | 1.0 | 4.0 | 0.00 | 0.00 | 0.00 | 77 | 1016.3 |
| 20260509030623 | 58 | 189 | 1.0 | 6.0 | 0.00 | 0.00 | 0.00 | 76 | 1016.4 |
| 20260509030118 | 58 | 195 | 1.0 | 6.0 | 0.00 | 0.00 | 0.00 | 76 | 1016.3 |
| 20260509025612 | 57 | 61 | 1.0 | 4.0 | 0.00 | 0.00 | 0.00 | 76 | 1015.7 |
| 20260509025105 | 58 | 127 | 1.0 | 4.0 | 0.00 | 0.00 | 0.00 | 76 | 1015.6 |
| 20260509024821 | 58 | 76 | 2.0 | 4.0 | 0.00 | 0.00 | 0.00 | 76 | 1015.8 |
| 20260509024053 | 58 | 355 | 2.0 | 5.0 | 0.00 | 0.00 | 0.00 | 76 | 1015.9 |
| 20260509023548 | 57 | 222 | 2.0 | 6.0 | 0.00 | 0.00 | 0.00 | 76 | 1016.1 |
| 20260509023041 | 57 | 52 | 2.0 | 8.0 | 0.00 | 0.00 | 0.00 | 76 | 1016.1 |
| 20260509022535 | 56 | 229 | 2.0 | 8.0 | 0.00 | 0.00 | 0.00 | 77 | 1016.0 |
| 20260509022253 | 56 | 175 | 2.0 | 7.0 | 0.00 | 0.00 | 0.00 | 77 | 1015.7 |
| 20260509021524 | 56 | 81 | 2.0 | 8.0 | 0.00 | 0.00 | 0.00 | 78 | 1015.7 |
| 20260509021018 | 55 | 130 | 1.0 | 8.0 | 0.00 | 0.00 | 0.00 | 79 | 1015.9 |
| 20260509020512 | 55 | 224 | 1.0 | 3.0 | 0.00 | 0.00 | 0.00 | 79 | 1016.1 |
| 20260509020005 | 55 | 303 | 1.0 | 3.0 | 0.00 | 0.00 | 0.00 | 80 | 1016.0 |
| 20260509015459 | 55 | 164 | 0.0 | 3.0 | 0.00 | 0.00 | 0.00 | 79 | 1015.7 |
| 20260509015448 | 55 | 164 | 0.0 | 3.0 | 0.00 | 0.00 | 0.00 | 78 | 1015.7 |